sat.trackr.live / text

‹ back to catalog

STARLINK-4459

NORAD 53670 · 2022-105Y

PAYLOAD ACTIVE UNKNOWN

§ Identity

Operator
Country
US
Launch date
2022-08-31
Launch site
AFWTR
Launch vehicle
Mass (kg)
RCS (m²)

Purposes: comms

External: N2YO · Heavens-Above · Gunter

§ Orbital elements

Epoch: 2026-09-20T13:22:09.634080Z

Period
93.91 min
Inclination
97.2840°
Eccentricity
0.0001785
Mean motion
15.33436495 rev/d
Perigee alt
464.3 km
Apogee alt
466.8 km
Semi-major
6,843.7 km
B*
1.4141e-5
RAAN
140.2157°
Arg perigee
96.0739°
Mean anomaly
264.0707°
Rev number
22,274

§ Raw data

STARLINK-44591 53670U 22105Y   26263.55705595  .00000381  00000+0  14141-4 0  99972 53670  97.2840 140.2157 0001785  96.0739 264.0707 15.33436495222744

JSON: /api/v1/satellites/53670 · /tle

For live sub-satellite position, see the globe view (requires WebGL).

§ Visibility from observer

Set your observer location to see the next 7 days of passes ≥ 10°. The values pass through the URL so the page stays shareable.

No JS? Fill the form by hand. The geolocation button needs JavaScript.